Location: Unspecified
(0.0000°N, 0.0000°E)
Time: 20:58:43
(UTC+00:00)

Amateur Radio Satellites - All Passes

Search period start: 27 January 2015 20:28
Search period end: 28 January 2015 20:28
Location: Unspecified, 0.0000°N, 0.0000°E

Satellite Date Start Highest point End Downlink Frequencies (MHz)
Time Altitude Azimuth
HO-68 27 Jan 20:32:00 20:39:12 84° 76° (ENE) 20:46:22 435.675
DX 1 27 Jan 20:41:42 20:42:36 11° 80° (E) 20:43:50 434.975-435.025
YUBILEINY 27 Jan 20:43:57 20:50:49 25° 275° (W) 20:57:15 435.215
COMPASS 1 27 Jan 20:54:49 20:59:04 71° 259° (W) 21:03:16 437.405
UWE-3 27 Jan 20:59:11 21:02:33 21° 79° (E) 21:06:07 435.000/436.395/437.385
CANX-2 27 Jan 21:03:30 21:07:19 30° 259° (W) 21:11:03 2200.000
SO-50 27 Jan 21:15:42 21:20:36 89° 68° (ENE) 21:25:24 436.795
Oscar 11 27 Jan 21:21:40 21:26:03 90° 248° (WSW) 21:30:25 145.826/435.025
AAUSAT CUBESAT 2 27 Jan 21:23:07 21:26:56 31° 259° (W) 21:30:40 437.432
TIGRISAT 27 Jan 21:24:15 21:25:52 12° 100° (E) 21:27:47 435.000
VELOX 1 27 Jan 21:25:06 21:26:49 12° 80° (E) 21:28:51 145.980
CUTE 1.7 + AOD 2 27 Jan 21:29:09 21:31:49 15° 260° (W) 21:34:16 437.475
DELFI C3 27 Jan 21:29:20 21:33:28 88° 257° (WSW) 21:37:34 145.870
GOMX 1 27 Jan 21:40:51 21:43:21 14° 262° (W) 21:45:36 467.674
CUBEBUG 2 27 Jan 21:50:12 21:54:41 58° 259° (W) 21:59:17 437.445
UKube-1 27 Jan 21:56:02 22:00:18 59° 258° (WSW) 22:04:34 .
NANOSAT C BR1 27 Jan 21:56:38 21:59:39 20° 100° (E) 22:02:50 145.865
CINEMA 3 27 Jan 22:02:36 22:06:11 21° 261° (W) 22:09:42 145.822/145.860
DOVE 4 27 Jan 22:03:30 22:04:52 11° 262° (W) 22:05:50 437.250
ZACube-1 27 Jan 22:06:35 22:10:58 53° 259° (W) 22:15:24 437.345
JUGNU 27 Jan 22:09:05 22:12:45 17° 13° (NNE) 22:16:31 437.505
QB50P2 27 Jan 22:09:06 22:12:51 31° 101° (E) 22:16:39 145.880/145.840
UNISAT 6 27 Jan 22:13:30 22:17:48 72° 101° (ESE) 22:22:04 437.425
DX 1 27 Jan 22:14:56 22:18:46 30° 259° (W) 22:22:32 434.975-435.025
QB50P1 27 Jan 22:18:52 22:22:54 42° 101° (E) 22:26:57 145.935-145.965
50 SAT 27 Jan 22:19:21 22:23:27 76° 79° (E) 22:27:34 437.505
FUNcube-1 27 Jan 22:19:30 22:23:37 36° 260° (W) 22:27:45 145.935
HUMSAT D 27 Jan 22:25:00 22:29:15 61° 259° (W) 22:33:32 437.325/437.525
ESTCUBE 1 27 Jan 22:26:36 22:30:36 33° 79° (E) 22:34:40 437.505/2401.250
AISAT 27 Jan 22:29:35 22:33:59 70° 258° (WSW) 22:38:22 437.250
POLYITAN 1 27 Jan 22:32:05 22:36:20 70° 101° (E) 22:40:35 437.675
UWE-3 27 Jan 22:35:50 22:38:59 18° 260° (W) 22:41:58 435.000/436.395/437.385
BUGSAT 1 27 Jan 22:40:44 22:44:58 65° 101° (ESE) 22:49:12 437.445
SRMSAT 27 Jan 22:46:10 22:48:23 12° 8° (N) 22:50:41 437.500
ANTELSAT 27 Jan 22:49:43 22:53:37 33° 281° (W) 22:57:26 437.575/2403.000
AIST 1 27 Jan 22:51:46 22:56:02 55° 86° (E) 23:00:22
POPSAT HIP 1 27 Jan 22:53:13 22:57:26 57° 281° (WNW) 23:01:37 437.405
DUCHIFAT 1 27 Jan 22:57:06 23:01:15 50° 281° (WNW) 23:05:23 145.980
TIGRISAT 27 Jan 22:58:57 23:02:33 25° 281° (W) 23:06:02 435.000
VELOX 1 27 Jan 22:59:32 23:03:19 27° 259° (WSW) 23:07:01 145.980
SPROUT 27 Jan 23:07:42 23:10:27 17° 80° (E) 23:13:24 437.525
CUBEBUG 1 27 Jan 23:13:18 23:17:33 55° 259° (WSW) 23:21:45 437.445
NANOSAT C BR1 27 Jan 23:32:39 23:35:25 16° 280° (W) 23:37:59 145.865
TISAT 1 27 Jan 23:50:01 23:54:13 74° 79° (ENE) 23:58:25 437.305
JUGNU 27 Jan 23:56:48 00:02:17 37° 19° (NNE) 00:07:47 437.505
Oscar 19 28 Jan 00:05:15 00:06:52 12° 101° (E) 00:08:53 437.125/150
ESTCUBE 1 28 Jan 00:06:21 00:07:25 10° 260° (W) 00:08:05 437.505/2401.250
BEESAT 2 28 Jan 00:22:16 00:24:29 15° 114° (ESE) 00:26:55 435.950
SRMSAT 28 Jan 00:33:42 00:38:21 23° 16° (NNE) 00:43:03 437.500
BEESAT 3 28 Jan 00:37:07 00:40:35 29° 112° (ESE) 00:44:09 437.485
SPROUT 28 Jan 00:43:22 00:46:27 19° 260° (W) 00:49:22 437.525
GONETS M04 28 Jan 00:47:44 00:56:22 60° 94° (E) 01:04:59
SWISSCUBE 28 Jan 00:58:59 01:03:41 61° 79° (E) 01:08:23 437.505
BEESAT 28 Jan 01:15:04 01:19:51 89° 261° (W) 01:24:36 436.000
ITUPSAT 1 28 Jan 01:17:47 01:22:35 85° 259° (W) 01:27:20 437.325
Oscar 19 28 Jan 01:41:22 01:46:09 39° 282° (WNW) 01:50:53 437.125/150
AIST 2 28 Jan 01:44:49 01:48:56 76° 112° (ESE) 01:53:07 435.215
JUGNU 28 Jan 01:45:26 01:51:26 81° 202° (SSW) 01:57:24 437.505
ITAMSAT 1 28 Jan 01:53:01 01:58:13 74° 102° (ESE) 02:03:27 435.822/435.867
BEESAT 2 28 Jan 01:59:36 02:02:35 19° 294° (WNW) 02:05:28 435.950
AUBIESAT-1 28 Jan 02:00:24 02:01:49 12° 78° (ENE) 02:03:31 437.475
STARS 28 Jan 02:03:27 02:07:13 28° 79° (ENE) 02:11:04 437.465
PCSat 28 Jan 02:03:47 02:04:18 10° 113° (ESE) 02:05:20 145.827
KKS-1 28 Jan 02:05:14 02:09:35 53° 78° (ENE) 02:13:57 437.445
SRMSAT 28 Jan 02:21:56 02:27:48 59° 21° (NNE) 02:33:39 437.500
HORYU 2 28 Jan 02:31:22 02:35:06 28° 101° (E) 02:38:56 437.375
Gurwin Techsat 1B 28 Jan 02:39:44 02:44:52 51° 282° (WNW) 02:50:01 435.225
O/OREOS (USA 219) 28 Jan 02:43:37 02:47:05 22° 74° (ENE) 02:50:43 437.305
GONETS M04 28 Jan 02:47:53 02:53:13 16° 276° (W) 02:57:44
M-CUBED/EXP-1 PRIME 28 Jan 02:57:24 03:02:06 88° 261° (W) 03:06:26 437.505
AO-7 28 Jan 03:01:02 03:08:10 34° 105° (ESE) 03:15:31 29.400- 29.500
RS-15 28 Jan 03:13:28 03:24:20 55° 113° (ESE) 03:34:57 29.354- 29.394
DANDE 28 Jan 03:15:31 03:20:53 30° 92° (E) 03:27:34 436.750
AUBIESAT-1 28 Jan 03:32:33 03:36:43 32° 254° (WSW) 03:40:34 437.475
MOZHAYETS 4 28 Jan 03:33:59 03:36:00 13° 80° (E) 03:38:19
JUGNU 28 Jan 03:35:25 03:40:36 30° 198° (SSW) 03:45:44 437.505
STARS 28 Jan 03:41:43 03:43:36 12° 260° (W) 03:45:11 437.465
PCSat 28 Jan 03:42:31 03:47:44 49° 290° (WNW) 03:52:55 145.827
CUSAT 1 28 Jan 03:52:25 03:58:55 84° 95° (E) 04:07:00 437.405
HORYU 2 28 Jan 04:09:44 04:11:41 12° 280° (W) 04:13:20 437.375
SRMSAT 28 Jan 04:11:17 04:17:02 50° 200° (SSW) 04:22:45 437.500
O/OREOS (USA 219) 28 Jan 04:23:27 04:26:24 16° 253° (WSW) 04:29:07 437.305
JAS-2 28 Jan 04:33:14 04:39:40 83° 282° (WNW) 04:46:59 435.910
PHONESAT 2.4 28 Jan 04:53:23 04:54:34 11° 140° (SE) 04:55:54 2401.200-2431.200
AO-7 28 Jan 04:53:37 05:00:50 32° 285° (WNW) 05:07:48 29.400- 29.500
DANDE 28 Jan 04:58:33 05:04:13 30° 281° (W) 05:10:46 436.750
MOZHAYETS 4 28 Jan 05:09:07 05:13:09 29° 259° (W) 05:17:05
CUBESAT XI-V 28 Jan 05:21:44 05:23:46 13° 80° (E) 05:26:07 437.345
Cubesat XI-IV 28 Jan 05:23:12 05:27:54 32° 102° (ESE) 05:32:42 437.490
JUGNU 28 Jan 05:27:08 05:30:14 14° 191° (S) 05:33:13 437.505
RS-15 28 Jan 05:28:00 05:36:39 24° 294° (WNW) 05:44:30 29.354- 29.394
VERMONT LUNAR 28 Jan 05:40:10 05:43:37 71° 316° (NW) 05:47:03 437.305
CUTE-I 28 Jan 05:43:09 05:48:23 55° 102° (ESE) 05:53:40 437.470
SRMSAT 28 Jan 06:02:12 06:06:33 20° 195° (SSW) 06:10:49 437.500
PRISM 28 Jan 06:03:02 06:07:13 89° 257° (WSW) 06:11:20 437.425
STRAND 1 28 Jan 06:24:48 06:29:51 65° 77° (ENE) 06:34:53 437.568
PHONESAT 2.4 28 Jan 06:29:41 06:33:07 44° 317° (NW) 06:36:32 2401.200-2431.200
ISS 28 Jan 06:52:11 06:54:19 16° 53° (NE) 06:56:33 145.825
CUBESAT XI-V 28 Jan 06:57:10 07:01:09 28° 259° (W) 07:05:01 437.345
Cubesat XI-IV 28 Jan 07:04:27 07:07:55 17° 281° (W) 07:11:04 437.490
YUBILEINY 28 Jan 07:18:47 07:27:34 79° 86° (E) 07:36:26 435.215
CANX-2 28 Jan 07:36:37 07:38:29 13° 100° (E) 07:40:39 2200.000
SRMSAT 28 Jan 07:54:57 07:56:35 11° 186° (S) 07:58:09 437.500
AAUSAT CUBESAT 2 28 Jan 07:55:13 07:56:13 11° 100° (E) 07:57:32 437.432
CUTE 1.7 + AOD 2 28 Jan 07:59:28 08:02:56 26° 101° (E) 08:06:29 437.475
BRITE-PL 28 Jan 08:21:51 08:27:16 89° 99° (E) 08:32:17 437.365/2234.400
HO-68 28 Jan 08:23:32 08:30:39 71° 104° (ESE) 08:37:49 435.675
GOMX 1 28 Jan 08:25:01 08:30:03 62° 101° (E) 08:34:46 467.674
ISS 28 Jan 08:28:44 08:30:44 15° 233° (SW) 08:32:36 145.825
SEEDS 28 Jan 08:31:33 08:35:41 65° 101° (ESE) 08:39:51 437.485
CINEMA 3 28 Jan 08:42:34 08:46:29 30° 100° (E) 08:50:21 145.822/145.860
DOVE 4 28 Jan 08:44:11 08:49:03 72° 101° (ESE) 08:53:37 437.250
DX 1 28 Jan 08:50:08 08:52:37 15° 101° (E) 08:55:20 434.975-435.025
FUNcube-1 28 Jan 08:56:05 08:57:50 13° 99° (E) 08:59:51 145.935
COMPASS 1 28 Jan 09:00:16 09:04:21 57° 281° (W) 09:08:27 437.405
JUGNU 28 Jan 09:08:11 09:10:25 12° 171° (S) 09:12:45 437.505
UWE-3 28 Jan 09:10:55 09:14:36 28° 100° (E) 09:18:17 435.000/436.395/437.385
CANX-2 28 Jan 09:10:57 09:14:21 23° 280° (W) 09:17:38 2200.000
YUBILEINY 28 Jan 09:22:49 09:24:36 10° 263° (W) 09:25:13 435.215
ANTELSAT 28 Jan 09:27:47 09:30:44 17° 80° (E) 09:33:54 437.575/2403.000
AAUSAT CUBESAT 2 28 Jan 09:28:17 09:31:47 26° 281° (W) 09:35:14 437.432
SO-50 28 Jan 09:29:13 09:33:26 46° 293° (WNW) 09:37:43 436.795
Oscar 11 28 Jan 09:30:44 09:34:59 66° 281° (W) 09:39:15 145.826/435.025
DELFI C3 28 Jan 09:31:03 09:35:05 83° 283° (WNW) 09:39:09 145.870
TIGRISAT 28 Jan 09:35:53 09:39:21 22° 79° (E) 09:43:00 435.000
VELOX 1 28 Jan 09:36:12 09:39:16 19° 101° (E) 09:42:32 145.980
CUTE 1.7 + AOD 2 28 Jan 09:37:09 09:38:47 12° 279° (W) 09:40:08 437.475
SRMSAT 28 Jan 09:46:28 09:46:55 10° 176° (S) 09:47:24 437.500
NANOSAT C BR1 28 Jan 10:03:04 10:06:28 24° 79° (E) 10:09:59 145.865
CUBEBUG 2 28 Jan 10:04:02 10:08:02 35° 281° (W) 10:11:54 437.445
UKube-1 28 Jan 10:05:27 10:09:35 43° 282° (WNW) 10:13:43 .
QB50P2 28 Jan 10:16:01 10:19:59 39° 79° (E) 10:23:59 145.880/145.840
HO-68 28 Jan 10:16:21 10:18:23 11° 282° (WNW) 10:19:37 435.675
ZACube-1 28 Jan 10:17:45 10:21:40 35° 281° (WNW) 10:25:30 437.345
50 SAT 28 Jan 10:20:23 10:24:22 78° 101° (E) 10:28:20 437.505
CINEMA 3 28 Jan 10:21:55 10:23:35 11° 281° (W) 10:24:53 145.822/145.860
DX 1 28 Jan 10:25:17 10:28:46 22° 281° (W) 10:32:07 434.975-435.025
QB50P1 28 Jan 10:25:41 10:29:49 54° 79° (ENE) 10:33:59 145.935-145.965
UNISAT 6 28 Jan 10:26:51 10:31:31 73° 258° (WSW) 10:36:12 437.425
FUNcube-1 28 Jan 10:30:38 10:34:07 24° 281° (W) 10:37:28 145.935
HUMSAT D 28 Jan 10:31:22 10:35:21 47° 281° (WNW) 10:39:20 437.325/437.525
POLYITAN 1 28 Jan 10:39:22 10:43:38 89° 83° (E) 10:47:55 437.675
ESTCUBE 1 28 Jan 10:40:41 10:45:06 54° 101° (ESE) 10:49:34 437.505/2401.250
AISAT 28 Jan 10:42:25 10:46:43 46° 282° (WNW) 10:51:01 437.250
BUGSAT 1 28 Jan 10:44:52 10:48:53 74° 79° (E) 10:52:56 437.445
UWE-3 28 Jan 10:49:55 10:51:04 11° 280° (W) 10:51:51 435.000/436.395/437.385
JUGNU 28 Jan 10:55:28 11:00:09 25° 163° (SSE) 11:04:54 437.505
AIST 1 28 Jan 10:58:54 11:03:12 81° 94° (E) 11:07:26
POPSAT HIP 1 28 Jan 11:00:22 11:04:26 44° 259° (W) 11:08:29 437.405
ANTELSAT 28 Jan 11:03:38 11:07:25 24° 260° (W) 11:11:05 437.575/2403.000
DUCHIFAT 1 28 Jan 11:03:56 11:07:54 40° 259° (W) 11:11:52 145.980
VELOX 1 28 Jan 11:12:30 11:15:46 19° 280° (W) 11:18:50 145.980
TIGRISAT 28 Jan 11:12:39 11:16:00 19° 260° (W) 11:19:10 435.000
SPROUT 28 Jan 11:15:31 11:18:54 23° 101° (E) 11:22:22 437.525
CUBEBUG 1 28 Jan 11:24:02 11:28:11 39° 281° (WNW) 11:32:20 437.445
GONETS M04 28 Jan 11:31:09 11:32:52 11° 83° (E) 11:35:40
SRMSAT 28 Jan 11:33:21 11:37:04 17° 167° (SSE) 11:40:53 437.500
NANOSAT C BR1 28 Jan 11:40:12 11:42:15 13° 260° (W) 11:44:02 145.865
TISAT 1 28 Jan 11:56:23 12:00:40 88° 278° (W) 12:04:56 437.305
BEESAT 2 28 Jan 12:18:13 12:20:53 17° 66° (ENE) 12:23:40 435.950
BEESAT 3 28 Jan 12:32:45 12:36:24 33° 67° (ENE) 12:40:04 437.485
Oscar 19 28 Jan 12:36:15 12:40:48 32° 79° (ENE) 12:45:25 437.125/150
JUGNU 28 Jan 12:43:34 12:49:22 64° 159° (SSE) 12:55:13 437.505
SPROUT 28 Jan 12:52:25 12:54:53 14° 280° (W) 12:57:06 437.525
ITAMSAT 1 28 Jan 12:52:26 12:53:55 12° 79° (E) 12:55:51 435.822/435.867
GONETS M04 28 Jan 13:21:09 13:29:50 75° 266° (W) 13:38:33
SWISSCUBE 28 Jan 13:21:12 13:25:57 67° 282° (WNW) 13:30:44 437.505
SRMSAT 28 Jan 13:21:12 13:26:43 39° 161° (SSE) 13:32:16 437.500
BEESAT 28 Jan 13:37:27 13:42:00 45° 282° (WNW) 13:46:34 436.000
Gurwin Techsat 1B 28 Jan 13:39:11 13:43:42 29° 79° (ENE) 13:48:18 435.225
ITUPSAT 1 28 Jan 13:40:34 13:45:06 42° 281° (WNW) 13:49:37 437.325
AIST 2 28 Jan 13:44:08 13:48:17 84° 249° (WSW) 13:52:23 435.215
BEESAT 2 28 Jan 13:56:16 13:58:59 17° 247° (WSW) 14:01:30 435.950
STARS 28 Jan 14:14:43 14:18:51 41° 102° (ESE) 14:23:01 437.465
Oscar 19 28 Jan 14:16:52 14:20:03 16° 259° (W) 14:22:55 437.125/150
KKS-1 28 Jan 14:18:01 14:22:29 83° 102° (ESE) 14:26:57 437.445
ITAMSAT 1 28 Jan 14:28:30 14:33:22 41° 258° (WSW) 14:38:11 435.822/435.867
JUGNU 28 Jan 14:32:50 14:38:27 46° 340° (NNW) 14:44:05 437.505
PCSat 28 Jan 14:36:00 14:40:47 33° 69° (ENE) 14:45:40 145.827
HORYU 2 28 Jan 14:44:03 14:48:19 43° 79° (ENE) 14:52:37 437.375
O/OREOS (USA 219) 28 Jan 14:54:04 14:58:09 36° 105° (ESE) 15:02:17 437.305
RS-15 28 Jan 14:54:24 15:05:26 48° 68° (ENE) 15:17:02 29.354- 29.394
M-CUBED/EXP-1 PRIME 28 Jan 15:00:27 15:03:59 84° 287° (WNW) 15:07:51 437.505
CUSAT 1 28 Jan 15:03:33 15:04:51 12° 75° (ENE) 15:06:18 437.405
SRMSAT 28 Jan 15:10:00 15:16:00 78° 338° (NNW) 15:22:01 437.500
Gurwin Techsat 1B 28 Jan 15:19:59 15:23:35 18° 259° (W) 15:26:53 435.225
AO-7 28 Jan 15:26:33 15:34:38 56° 75° (ENE) 15:42:47 29.400- 29.500
AUBIESAT-1 28 Jan 15:35:13 15:38:14 26° 283° (WNW) 15:41:25 437.475
MOZHAYETS 4 28 Jan 15:49:32 15:52:59 22° 101° (E) 15:56:37
JAS-2 28 Jan 16:08:12 16:14:30 55° 79° (E) 16:20:05 435.910
DANDE 28 Jan 16:08:55 16:13:28 73° 266° (W) 16:16:52 436.750
PCSat 28 Jan 16:20:48 16:24:08 16° 248° (WSW) 16:27:10 145.827
JUGNU 28 Jan 16:23:41 16:27:51 19° 346° (NNW) 16:31:58 437.505
PHONESAT 2.4 28 Jan 16:35:53 16:36:35 11° 40° (NE) 16:37:30 2401.200-2431.200
CUSAT 1 28 Jan 16:45:55 16:47:47 13° 269° (W) 16:49:16 437.405
SRMSAT 28 Jan 17:00:11 17:05:22 29° 342° (NNW) 17:10:30 437.500
RS-15 28 Jan 17:07:29 17:17:55 33° 246° (WSW) 17:28:06 29.354- 29.394
VERMONT LUNAR 28 Jan 17:18:54 17:22:26 89° 234° (SW) 17:25:59 437.305
AO-7 28 Jan 17:21:38 17:27:20 19° 256° (WSW) 17:32:28 29.400- 29.500
MOZHAYETS 4 28 Jan 17:27:04 17:30:07 17° 280° (W) 17:32:59
CUBESAT XI-V 28 Jan 17:38:42 17:42:26 24° 101° (E) 17:46:19 437.345
JAS-2 28 Jan 17:57:11 17:59:16 11° 256° (WSW) 18:00:42 435.910
YUBILEINY 28 Jan 17:59:35 18:04:26 17° 96° (E) 18:09:59 435.215
Cubesat XI-IV 28 Jan 18:02:20 18:07:40 86° 257° (WSW) 18:12:59 437.490
PRISM 28 Jan 18:07:13 18:11:23 78° 283° (WNW) 18:15:36 437.425
PHONESAT 2.4 28 Jan 18:11:37 18:15:11 51° 223° (SW) 18:18:45 2401.200-2431.200
JUGNU 28 Jan 18:16:21 18:17:47 11° 354° (N) 18:19:09 437.505
CUTE-I 28 Jan 18:22:49 18:27:57 49° 258° (WSW) 18:33:03 437.470
ISS 28 Jan 18:27:56 18:28:24 10° 128° (SE) 18:29:04 145.825
SRMSAT 28 Jan 18:52:06 18:55:12 14° 349° (N) 18:58:12 437.500
STRAND 1 28 Jan 18:57:32 19:02:30 49° 282° (WNW) 19:07:28 437.568
CUBESAT XI-V 28 Jan 19:16:43 19:19:47 17° 280° (W) 19:22:37 437.345
CANX-2 28 Jan 19:42:55 19:45:41 17° 80° (E) 19:48:38 2200.000
YUBILEINY 28 Jan 19:52:46 20:01:16 56° 274° (W) 20:09:38 435.215
AAUSAT CUBESAT 2 28 Jan 19:59:16 20:01:16 14° 80° (E) 20:03:32 437.432
ISS 28 Jan 20:02:10 20:04:50 23° 306° (NW) 20:07:27 145.825
SO-50 28 Jan 20:03:19 20:06:20 17° 65° (ENE) 20:09:33 436.795
CUTE 1.7 + AOD 2 28 Jan 20:06:09 20:10:02 33° 79° (E) 20:13:56 437.475
JUGNU 28 Jan 20:06:54 20:07:58 10° 5° (N) 20:09:05 437.505
